VLG29EB LPPR-LEBB

Flight info

Callsign VLG29EB
Flight time N/A
Altitude 34000
Route BELDU DCT ADORO DCT FITSE DCT DGO
Aircraft A321/M-SDE3FGHIRWY/LB1

Departure

Time 2026-05-05 18:34
Airport Francisco de Sá Carneiro Airport (LPPR)

Arrival

Time N/A
Airport Bilbao Airport (LEBB)
Time Latitude Longitude Altitude Speed Heading
2026-05-05 17:56 41.23414 -8.67203 236 ft 0 kts 40°
2026-05-05 18:22 41.23404 -8.67214 236 ft 2 kts 41°
2026-05-05 18:22 41.23394 -8.67230 236 ft 2 kts 58°
2026-05-05 18:22 41.23386 -8.67247 236 ft 2 kts 68°
2026-05-05 18:23 41.23382 -8.67266 236 ft 2 kts 80°
2026-05-05 18:23 41.23381 -8.67286 236 ft 2 kts 92°
2026-05-05 18:23 41.23383 -8.67306 236 ft 2 kts 104°
2026-05-05 18:23 41.23388 -8.67326 236 ft 2 kts 116°
2026-05-05 18:24 41.23396 -8.67343 236 ft 2 kts 129°
2026-05-05 18:24 41.23407 -8.67358 236 ft 2 kts 141°
2026-05-05 18:24 41.23420 -8.67369 236 ft 2 kts 153°
2026-05-05 18:24 41.23434 -8.67376 236 ft 1 kts 165°
2026-05-05 18:25 41.23441 -8.67378 236 ft 1 kts 169°
2026-05-05 18:25 41.23442 -8.67378 236 ft 0 kts 169°
2026-05-05 18:30 41.23405 -8.67370 236 ft 8 kts 171°
2026-05-05 18:30 41.23349 -8.67390 236 ft 9 kts 227°
2026-05-05 18:31 41.23326 -8.67473 236 ft 9 kts 261°
2026-05-05 18:31 41.23319 -8.67522 236 ft 2 kts 261°
2026-05-05 18:31 41.23317 -8.67539 236 ft 0 kts 261°
2026-05-05 18:32 41.23317 -8.67540 236 ft 0 kts 261°
2026-05-05 18:32 41.23317 -8.67539 236 ft 0 kts 261°
2026-05-05 18:32 41.23316 -8.67546 236 ft 2 kts 257°
2026-05-05 18:32 41.23309 -8.67595 236 ft 9 kts 259°
2026-05-05 18:33 41.23309 -8.67708 236 ft 15 kts 301°
2026-05-05 18:33 41.23403 -8.67758 236 ft 14 kts 349°
2026-05-05 18:33 41.23659 -8.67825 236 ft 71 kts 348°
2026-05-05 18:33 41.24387 -8.68015 236 ft 136 kts 348°
2026-05-05 18:34 41.25446 -8.68281 540 ft 162 kts 347°
2026-05-05 18:34 41.26562 -8.68608 1156 ft 168 kts 343°
2026-05-05 18:34 41.27690 -8.68963 1944 ft 164 kts 347°
2026-05-05 18:34 41.28798 -8.69244 2467 ft 163 kts 350°
2026-05-05 18:35 41.29967 -8.69525 2750 ft 176 kts 348°
2026-05-05 18:35 41.31228 -8.69863 3037 ft 190 kts 348°
2026-05-05 18:35 41.32587 -8.70233 3329 ft 205 kts 348°
2026-05-05 18:35 41.34064 -8.70634 3560 ft 226 kts 348°
2026-05-05 18:36 41.35667 -8.71068 3917 ft 243 kts 348°
2026-05-05 18:36 41.37366 -8.71527 4490 ft 252 kts 348°
2026-05-05 18:36 41.39110 -8.71965 5271 ft 253 kts 353°
2026-05-05 18:36 41.40847 -8.71639 5984 ft 259 kts 21°
2026-05-05 18:37 41.42306 -8.70233 6735 ft 266 kts 46°
2026-05-05 18:37 41.43188 -8.68031 7461 ft 277 kts 71°
2026-05-05 18:37 41.43570 -8.65514 8249 ft 281 kts 76°
2026-05-05 18:37 41.43930 -8.62906 9012 ft 284 kts 76°
2026-05-05 18:38 41.44204 -8.60268 9739 ft 290 kts 83°
2026-05-05 18:38 41.44176 -8.57547 10420 ft 297 kts 92°
2026-05-05 18:38 41.43928 -8.54743 10824 ft 312 kts 95°
2026-05-05 18:38 41.43618 -8.51796 11158 ft 329 kts 95°
2026-05-05 18:39 41.43289 -8.48725 11706 ft 337 kts 95°
2026-05-05 18:39 41.42961 -8.45621 12379 ft 341 kts 95°
2026-05-05 18:39 41.42633 -8.42473 13032 ft 344 kts 95°
2026-05-05 18:39 41.42304 -8.39288 13667 ft 348 kts 94°
2026-05-05 18:40 41.41973 -8.36065 14254 ft 353 kts 94°
2026-05-05 18:40 41.41637 -8.32781 14838 ft 357 kts 95°
2026-05-05 18:40 41.41298 -8.29477 15416 ft 362 kts 95°
2026-05-05 18:40 41.40955 -8.26141 15976 ft 366 kts 94°
2026-05-05 18:41 41.40609 -8.22775 16533 ft 370 kts 94°
2026-05-05 18:41 41.40256 -8.19353 17087 ft 374 kts 94°
2026-05-05 18:41 41.39898 -8.15891 17638 ft 378 kts 94°
2026-05-05 18:41 41.39534 -8.12389 18152 ft 382 kts 94°
2026-05-05 18:42 41.39166 -8.08850 18629 ft 387 kts 94°
2026-05-05 18:42 41.38794 -8.05273 19066 ft 393 kts 94°
2026-05-05 18:42 41.38414 -8.01651 19551 ft 397 kts 94°
2026-05-05 18:42 41.38029 -7.97986 20035 ft 401 kts 94°
2026-05-05 18:43 41.37638 -7.94290 20513 ft 405 kts 94°
2026-05-05 18:43 41.37241 -7.90560 20957 ft 409 kts 95°
2026-05-05 18:43 41.36838 -7.86772 21391 ft 414 kts 94°
2026-05-05 18:43 41.36429 -7.82941 21825 ft 418 kts 95°
2026-05-05 18:44 41.36127 -7.79071 22244 ft 420 kts 89°
2026-05-05 18:44 41.36119 -7.75181 22656 ft 420 kts 82°
2026-05-05 18:44 41.36383 -7.71299 23060 ft 422 kts 79°
2026-05-05 18:44 41.36738 -7.67402 23458 ft 426 kts 78°
2026-05-05 18:45 41.37111 -7.63460 23850 ft 430 kts 78°
2026-05-05 18:45 41.37480 -7.59485 24263 ft 433 kts 78°
2026-05-05 18:45 41.37844 -7.55484 24681 ft 436 kts 78°
2026-05-05 18:45 41.38206 -7.51436 25089 ft 439 kts 79°
2026-05-05 18:46 41.38564 -7.47369 25503 ft 441 kts 79°
2026-05-05 18:46 41.38920 -7.43290 25899 ft 444 kts 79°
2026-05-05 18:46 41.39276 -7.39193 26282 ft 447 kts 79°
2026-05-05 18:46 41.39631 -7.35078 26647 ft 450 kts 79°
2026-05-05 18:47 41.39987 -7.30925 27003 ft 452 kts 80°
2026-05-05 18:47 41.40346 -7.26731 27331 ft 456 kts 80°
2026-05-05 18:47 41.40705 -7.22494 27676 ft 458 kts 80°
2026-05-05 18:47 41.41065 -7.18238 27996 ft 461 kts 80°
2026-05-05 18:48 41.41426 -7.13959 28312 ft 464 kts 80°
2026-05-05 18:48 41.41785 -7.09681 28624 ft 466 kts 80°
2026-05-05 18:48 41.42145 -7.05365 28942 ft 468 kts 80°
2026-05-05 18:48 41.42508 -7.00989 29224 ft 471 kts 80°
2026-05-05 18:49 41.42868 -6.96635 29537 ft 473 kts 80°
2026-05-05 18:49 41.43227 -6.92268 29863 ft 475 kts 81°
2026-05-05 18:49 41.43589 -6.87866 30139 ft 477 kts 80°
2026-05-05 18:49 41.43993 -6.82919 30438 ft 479 kts 81°
2026-05-05 18:50 41.44993 -6.70531 31333 ft 479 kts 81°
2026-05-05 18:50 41.45700 -6.61672 32038 ft 478 kts 81°
2026-05-05 18:50 41.47081 -6.44018 31992 ft 477 kts 81°
2026-05-05 18:51 41.48912 -6.26467 31995 ft 473 kts 72°
2026-05-05 18:51 41.53455 -6.10120 31994 ft 468 kts 61°
2026-05-05 18:52 41.58700 -5.93906 31975 ft 470 kts 63°
2026-05-05 18:52 41.61102 -5.85800 31836 ft 464 kts 63°
2026-05-05 18:53 41.62290 -5.81781 31606 ft 461 kts 63°
2026-05-05 18:53 41.63479 -5.77775 31370 ft 460 kts 63°
2026-05-05 18:53 41.64665 -5.73798 31151 ft 461 kts 63°
2026-05-05 18:53 41.65855 -5.69808 30900 ft 462 kts 62°
2026-05-05 18:54 41.67034 -5.65844 30599 ft 456 kts 62°
2026-05-05 18:54 41.68195 -5.61927 30297 ft 453 kts 62°
2026-05-05 18:54 41.69352 -5.58031 29991 ft 450 kts 62°
2026-05-05 18:54 41.70504 -5.54158 29690 ft 448 kts 62°
2026-05-05 18:55 41.71649 -5.50303 29387 ft 446 kts 62°
2026-05-05 18:55 41.72790 -5.46453 29091 ft 443 kts 62°
2026-05-05 18:55 41.73920 -5.42630 28801 ft 439 kts 62°
2026-05-05 18:55 41.75037 -5.38840 28502 ft 436 kts 62°
2026-05-05 18:56 41.76146 -5.35072 28197 ft 433 kts 62°
2026-05-05 18:56 41.77254 -5.31310 27927 ft 430 kts 63°
2026-05-05 18:56 41.78349 -5.27582 27613 ft 427 kts 63°
2026-05-05 18:56 41.79445 -5.23838 27316 ft 424 kts 63°
2026-05-05 18:57 41.80537 -5.20108 27027 ft 420 kts 63°
2026-05-05 18:57 41.81603 -5.16457 26732 ft 417 kts 63°
2026-05-05 18:57 41.82673 -5.12789 26456 ft 414 kts 64°
2026-05-05 18:57 41.83723 -5.09187 26158 ft 411 kts 64°
2026-05-05 18:58 41.86031 -5.01251 25532 ft 407 kts 64°
2026-05-05 18:58 41.89332 -4.89871 24636 ft 400 kts 64°
2026-05-05 18:58 41.90332 -4.86410 24345 ft 392 kts 65°
2026-05-05 18:58 41.91314 -4.82984 24031 ft 387 kts 64°
2026-05-05 18:59 41.92293 -4.79584 23743 ft 384 kts 65°
2026-05-05 18:59 41.93262 -4.76215 23453 ft 380 kts 65°
2026-05-05 18:59 41.94209 -4.72919 23104 ft 378 kts 65°
2026-05-05 18:59 41.95149 -4.69630 22765 ft 376 kts 65°
2026-05-05 19:00 41.96096 -4.66326 22441 ft 373 kts 65°
2026-05-05 19:00 41.97026 -4.63076 22161 ft 371 kts 65°
2026-05-05 19:00 41.97949 -4.59854 21847 ft 367 kts 66°
2026-05-05 19:00 41.98859 -4.56662 21524 ft 365 kts 66°
2026-05-05 19:01 41.99762 -4.53493 21191 ft 363 kts 66°
2026-05-05 19:01 42.00664 -4.50323 20874 ft 362 kts 66°
2026-05-05 19:01 42.01560 -4.47169 20566 ft 360 kts 66°
2026-05-05 19:01 42.02451 -4.44029 20245 ft 357 kts 66°
2026-05-05 19:02 42.03333 -4.40916 19916 ft 356 kts 66°
2026-05-05 19:02 42.04214 -4.37804 19596 ft 354 kts 66°
2026-05-05 19:02 42.05095 -4.34692 19278 ft 352 kts 67°
2026-05-05 19:02 42.05971 -4.31593 18968 ft 350 kts 67°
2026-05-05 19:03 42.12808 -4.07310 16798 ft 345 kts 67°
2026-05-05 19:03 42.14484 -4.01280 16234 ft 339 kts 67°
2026-05-05 19:03 42.18729 -3.85965 14788 ft 333 kts 67°
2026-05-05 19:03 42.19541 -3.83043 14504 ft 327 kts 67°
2026-05-05 19:04 42.20337 -3.80172 14454 ft 326 kts 67°
2026-05-05 19:04 42.21134 -3.77298 14454 ft 327 kts 67°
2026-05-05 19:04 42.21935 -3.74405 14464 ft 327 kts 67°
2026-05-05 19:04 42.22734 -3.71509 14464 ft 327 kts 67°
2026-05-05 19:05 42.23529 -3.68627 14470 ft 327 kts 67°
2026-05-05 19:05 42.24323 -3.65748 14473 ft 327 kts 67°
2026-05-05 19:05 42.25117 -3.62860 14473 ft 327 kts 67°
2026-05-05 19:05 42.25910 -3.59973 14304 ft 327 kts 67°
2026-05-05 19:06 42.26698 -3.57100 14098 ft 325 kts 68°
2026-05-05 19:06 42.27483 -3.54232 13894 ft 324 kts 67°
2026-05-05 19:06 42.28267 -3.51367 13685 ft 324 kts 67°
2026-05-05 19:06 42.29046 -3.48514 13458 ft 323 kts 67°
2026-05-05 19:07 42.29822 -3.45667 13199 ft 322 kts 67°
2026-05-05 19:07 42.30589 -3.42850 12932 ft 317 kts 67°
2026-05-05 19:07 42.36931 -3.19469 10611 ft 312 kts 68°
2026-05-05 19:07 42.41960 -3.00767 9177 ft 299 kts 68°
2026-05-05 19:08 42.42660 -2.98132 9066 ft 293 kts 68°
2026-05-05 19:08 42.43365 -2.95487 9031 ft 293 kts 68°
2026-05-05 19:08 42.44075 -2.92829 8997 ft 293 kts 68°
2026-05-05 19:08 42.44859 -2.90277 8987 ft 291 kts 60°
2026-05-05 19:09 42.45905 -2.87936 8987 ft 289 kts 51°
2026-05-05 19:09 42.48442 -2.84074 8974 ft 287 kts 42°
2026-05-05 19:09 42.55336 -2.75794 8982 ft 286 kts 37°
2026-05-05 19:09 42.60618 -2.69761 8998 ft 287 kts 38°
2026-05-05 19:10 42.62110 -2.67952 8990 ft 287 kts 39°
2026-05-05 19:10 42.63609 -2.66120 8987 ft 287 kts 39°
2026-05-05 19:10 42.65097 -2.64304 8981 ft 287 kts 39°
2026-05-05 19:10 42.66590 -2.62495 8987 ft 286 kts 37°
2026-05-05 19:11 42.68310 -2.61221 8964 ft 278 kts 11°
2026-05-05 19:11 42.70219 -2.60853 8986 ft 276 kts
2026-05-05 19:11 42.72136 -2.60659 8983 ft 269 kts
2026-05-05 19:11 42.73963 -2.60454 8973 ft 256 kts
2026-05-05 19:12 42.75695 -2.60220 8969 ft 244 kts
2026-05-05 19:12 42.77380 -2.59967 8979 ft 244 kts
2026-05-05 19:12 42.82200 -2.59177 8682 ft 244 kts
2026-05-05 19:12 42.88923 -2.57969 8176 ft 241 kts
2026-05-05 19:13 42.95541 -2.56732 7691 ft 238 kts
2026-05-05 19:13 43.02085 -2.55531 7158 ft 235 kts
2026-05-05 19:13 43.05415 -2.54924 6826 ft 231 kts
2026-05-05 19:13 43.07012 -2.54631 6739 ft 230 kts
2026-05-05 19:14 43.12059 -2.53705 6484 ft 230 kts
2026-05-05 19:14 43.13646 -2.53412 6408 ft 229 kts
2026-05-05 19:14 43.15193 -2.53550 6224 ft 222 kts 337°
2026-05-05 19:14 43.16439 -2.54740 5993 ft 220 kts 312°
2026-05-05 19:15 43.17329 -2.56467 5982 ft 222 kts 302°
2026-05-05 19:15 43.18095 -2.58303 5913 ft 215 kts 300°
2026-05-05 19:15 43.18788 -2.60081 5646 ft 209 kts 299°
2026-05-05 19:15 43.19450 -2.61844 5274 ft 202 kts 298°
2026-05-05 19:16 43.20083 -2.63567 4926 ft 193 kts 298°
2026-05-05 19:16 43.20669 -2.65177 4648 ft 181 kts 298°
2026-05-05 19:16 43.21218 -2.66692 4358 ft 175 kts 298°
2026-05-05 19:16 43.21741 -2.68135 4069 ft 163 kts 298°
2026-05-05 19:17 43.22228 -2.69480 3806 ft 153 kts 298°
2026-05-05 19:17 43.22699 -2.70778 3582 ft 151 kts 299°
2026-05-05 19:17 43.24992 -2.77082 2510 ft 149 kts 299°
2026-05-05 19:17 43.25457 -2.78350 2290 ft 148 kts 298°
2026-05-05 19:18 43.25922 -2.79618 2064 ft 148 kts 298°
2026-05-05 19:18 43.26384 -2.80883 1836 ft 147 kts 298°
2026-05-05 19:18 43.26842 -2.82138 1611 ft 147 kts 298°
2026-05-05 19:18 43.27297 -2.83405 1389 ft 146 kts 297°
2026-05-05 19:19 43.27736 -2.84676 1179 ft 146 kts 297°
2026-05-05 19:19 43.28198 -2.85927 931 ft 145 kts 299°
2026-05-05 19:19 43.28683 -2.87145 702 ft 144 kts 296°
2026-05-05 19:19 43.29120 -2.88401 512 ft 145 kts 296°
2026-05-05 19:20 43.29583 -2.89640 252 ft 143 kts 297°
2026-05-05 19:20 43.30031 -2.90850 159 ft 136 kts 296°
2026-05-05 19:20 43.30395 -2.91837 137 ft 77 kts 297°